Date String (YYYY-MM-DD hh:mm:ss) UTC,Instrument flags,Ambient pressure (hPa),Sample flow (lpm),Bypass flow (lpm),Sample temperature (°C),Ambient temperature (°C),ASC tube jacket temperature (°C),LED temperature (°C),Box temperature (°C),Sample RH (%),Span deviation,Mass concentration (μg/m³),Mass concentration (μg/m³),Mass concentration (μg/m³)
DateTimeUTC,F1_M11,P_M11,Q1_M11,Q2_M11,T1_M11,T2_M11,T3_M11,T4_M11,T5_M11,U1_M11,ZSPAN_M11,X0_M11,X2_M11,X1_M11
2022-01-05 08:00:00,,0823.7,5.01,0.00,21.8,22.3,00.0,30.8,23.6,11.2,0000.0,0003.90,0001.47,0001.13
2022-01-05 08:01:00,,0823.6,4.99,0.00,21.7,22.0,00.0,30.8,23.4,11.2,0000.0,0003.10,0001.47,0001.14
2022-01-05 08:02:00,,0823.4,5.01,0.00,21.7,21.7,00.0,30.7,23.2,11.3,0000.0,0003.19,0001.50,0001.14
2022-01-05 08:03:00,,0823.3,4.98,0.00,21.6,21.4,00.0,30.7,23.1,11.3,0000.0,0003.21,0001.51,0001.15
2022-01-05 08:04:00,,0823.4,5.01,0.00,21.6,21.2,00.0,30.7,23.1,11.3,0000.0,0003.23,0001.51,0001.16
2022-01-05 08:05:00,,0823.4,5.01,0.00,21.5,21.0,00.0,30.7,22.9,11.3,0000.0,0003.22,0001.48,0001.17
2022-01-05 08:06:00,,0823.4,4.98,0.00,21.4,20.8,00.0,30.7,22.8,11.4,0000.0,0004.31,0001.52,0001.18
2022-01-05 08:07:00,,0823.4,5.01,0.00,21.4,20.7,00.0,30.6,22.8,11.5,0000.0,0004.50,0001.51,0001.19
2022-01-05 08:08:00,,0823.3,4.99,0.00,21.3,20.8,00.0,30.6,22.8,11.5,0000.0,0004.59,0001.53,0001.19
2022-01-05 08:09:00,,0823.4,5.00,0.00,21.5,21.6,00.0,30.6,23.1,11.5,0000.0,0004.60,0001.53,0001.20
2022-01-05 08:10:00,,0823.3,4.99,0.00,21.6,22.4,00.0,30.7,23.5,11.4,0000.0,0004.01,0001.51,0001.21
2022-01-05 08:11:00,,0823.4,5.00,0.00,21.8,22.9,00.0,30.7,23.7,11.3,0000.0,0003.89,0001.50,0001.19
2022-01-05 08:12:00,,0823.4,5.01,0.00,21.8,22.6,00.0,30.7,23.6,11.3,0000.0,0003.87,0001.48,0001.18
2022-01-05 08:13:00,,0823.3,4.99,0.00,21.8,22.2,00.0,30.7,23.4,11.3,0000.0,0003.89,0001.52,0001.19
2022-01-05 08:14:00,,0823.3,5.01,0.00,21.7,21.8,00.0,30.7,23.2,11.3,0000.0,0003.97,0001.57,0001.20
2022-01-05 08:15:00,,0823.2,4.98,0.00,21.6,21.4,00.0,30.7,23.0,11.4,0000.0,0003.93,0001.57,0001.19
2022-01-05 08:16:00,,0823.2,5.02,0.00,21.5,21.1,00.0,30.7,22.8,11.5,0000.0,0003.90,0001.58,0001.19
2022-01-05 08:17:00,,0823.3,4.99,0.00,21.4,20.8,00.0,30.6,22.7,11.6,0000.0,0002.81,0001.57,0001.19
2022-01-05 08:18:00,,0823.2,5.02,0.00,21.3,20.6,00.0,30.6,22.5,11.6,0000.0,0002.63,0001.58,0001.19
2022-01-05 08:19:00,,0823.2,4.98,0.00,21.2,20.4,00.0,30.5,22.5,11.7,0000.0,0003.02,0001.56,0001.19
2022-01-05 08:20:00,,0823.1,5.01,0.00,21.1,20.6,00.0,30.5,22.6,11.7,0000.0,0003.04,0001.56,0001.19
2022-01-05 08:21:00,,0823.2,5.00,0.00,21.3,21.5,00.0,30.5,23.0,11.7,0000.0,0002.88,0001.55,0001.19
2022-01-05 08:22:00,,0823.3,4.99,0.00,21.5,22.4,00.0,30.6,23.3,11.6,0000.0,0002.77,0001.55,0001.20
2022-01-05 08:23:00,,0823.2,5.01,0.00,21.6,22.7,00.0,30.6,23.5,11.5,0000.0,0002.79,0001.56,0001.20
2022-01-05 08:24:00,,0823.2,5.00,0.00,21.6,22.3,00.0,30.6,23.3,11.5,0000.0,0002.74,0001.53,0001.19
2022-01-05 08:25:00,,0823.2,4.99,0.00,21.5,21.8,00.0,30.6,23.0,11.5,0000.0,0002.72,0001.50,0001.18
2022-01-05 08:26:00,,0823.2,5.01,0.00,21.4,21.4,00.0,30.6,22.8,11.6,0000.0,0002.74,0001.50,0001.19
2022-01-05 08:27:00,,0823.2,4.99,0.00,21.3,21.0,00.0,30.5,22.6,11.7,0000.0,0002.79,0001.51,0001.18
2022-01-05 08:28:00,,0823.2,5.01,0.00,21.2,20.8,00.0,30.5,22.5,11.8,0000.0,0002.79,0001.50,0001.17
2022-01-05 08:29:00,,0823.1,4.99,0.00,21.1,20.5,00.0,30.5,22.4,11.8,0000.0,0002.83,0001.48,0001.16
2022-01-05 08:30:00,,0823.2,5.01,0.00,21.0,20.6,00.0,30.4,22.5,11.9,0000.0,0002.34,0001.45,0001.14
2022-01-05 08:31:00,,0823.3,5.00,0.00,21.2,21.5,00.0,30.4,22.8,11.8,0000.0,0002.66,0001.46,0001.13
2022-01-05 08:32:00,,0823.4,4.99,0.00,21.4,22.4,00.0,30.5,23.2,11.6,0000.0,0003.12,0001.46,0001.13
2022-01-05 08:33:00,,0823.3,5.01,0.00,21.5,22.4,00.0,30.5,23.3,11.5,0000.0,0003.07,0001.43,0001.11
2022-01-05 08:34:00,,0823.2,4.99,0.00,21.5,22.0,00.0,30.5,23.2,11.5,0000.0,0003.11,0001.44,0001.11
2022-01-05 08:35:00,,0823.2,5.00,0.00,21.4,21.6,00.0,30.5,23.1,11.5,0000.0,0003.12,0001.42,0001.11
2022-01-05 08:36:00,,0823.2,5.00,0.00,21.4,21.4,00.0,30.5,22.9,11.5,0000.0,0003.10,0001.42,0001.11
2022-01-05 08:37:00,,0823.2,5.00,0.00,21.3,21.1,00.0,30.5,22.8,11.5,0000.0,0003.13,0001.44,0001.11
2022-01-05 08:38:00,,0823.3,5.01,0.00,21.3,20.9,00.0,30.5,22.8,11.5,0000.0,0003.03,0001.41,0001.11
2022-01-05 08:39:00,,0823.2,4.99,0.00,21.3,20.8,00.0,30.4,22.7,11.6,0000.0,0003.20,0001.43,0001.11
2022-01-05 08:40:00,,0823.2,5.00,0.00,21.2,20.6,00.0,30.4,22.6,11.6,0000.0,0003.21,0001.45,0001.11
2022-01-05 08:41:00,,0823.3,4.99,0.00,21.2,20.4,00.0,30.4,22.6,11.6,0000.0,0003.27,0001.51,0001.12
2022-01-05 08:42:00,,0823.3,4.99,0.00,21.2,20.9,00.0,30.4,22.8,11.5,0000.0,0003.07,0001.53,0001.13
2022-01-05 08:43:00,,0823.4,5.00,0.00,21.3,22.0,00.0,30.4,23.2,11.5,0000.0,0002.58,0001.52,0001.12
2022-01-05 08:44:00,,0823.3,5.01,0.00,21.5,22.8,00.0,30.5,23.5,11.3,0000.0,0002.74,0001.55,0001.12
2022-01-05 08:45:00,,0823.2,4.99,0.00,21.6,22.6,00.0,30.5,23.5,11.2,0000.0,0002.74,0001.54,0001.12
2022-01-05 08:46:00,,0823.1,5.01,0.00,21.6,22.1,00.0,30.5,23.4,11.2,0000.0,0002.71,0001.53,0001.10
2022-01-05 08:47:00,,0823.1,4.99,0.00,21.6,21.8,00.0,30.5,23.3,11.2,0000.0,0002.67,0001.51,0001.11
2022-01-05 08:48:00,,0823.1,5.01,0.00,21.6,21.5,00.0,30.5,23.2,11.2,0000.0,0003.09,0001.49,0001.10
2022-01-05 08:49:00,,0823.1,4.99,0.00,21.6,21.3,00.0,30.5,23.2,11.2,0000.0,0003.53,0001.52,0001.10
2022-01-05 08:50:00,,0823.1,4.99,0.00,21.5,21.1,00.0,30.5,23.1,11.2,0000.0,0003.41,0001.52,0001.11
2022-01-05 08:51:00,,0823.2,5.00,0.00,21.5,21.0,00.0,30.5,23.0,11.2,0000.0,0003.36,0001.50,0001.11
2022-01-05 08:52:00,,0823.1,5.01,0.00,21.5,20.9,00.0,30.5,23.0,11.2,0000.0,0003.22,0001.46,0001.11
2022-01-05 08:53:00,,0823.1,4.99,0.00,21.4,20.8,00.0,30.5,23.0,11.3,0000.0,0003.16,0001.43,0001.10
2022-01-05 08:54:00,,0823.1,5.00,0.00,21.4,20.7,00.0,30.5,23.0,11.3,0000.0,0003.40,0001.42,0001.11
2022-01-05 08:55:00,,0823.1,5.01,0.00,21.4,20.7,00.0,30.5,22.9,11.3,0000.0,0003.48,0001.45,0001.12
2022-01-05 08:56:00,,0823.0,4.99,0.00,21.3,20.7,00.0,30.5,22.9,11.3,0000.0,0003.68,0001.49,0001.13
2022-01-05 08:57:00,,0823.1,4.99,0.00,21.3,20.6,00.0,30.4,22.9,11.3,0000.0,0004.06,0001.51,0001.15
2022-01-05 08:58:00,,0823.0,5.00,0.00,21.3,20.7,00.0,30.4,22.9,11.3,0000.0,0005.40,0001.54,0001.16
2022-01-05 08:59:00,,0823.0,4.99,0.00,21.3,20.7,00.0,30.4,22.9,11.3,0000.0,0005.06,0001.54,0001.17
